     2              OBSERVATION DATA    GPS                 RINEX VERSION / TYPE
teqc 1997Jul24 19970814                                     PGM / RUN BY / DATE
                                                            COMMENT
Original Marker Name: 0618                                  COMMENT
Campaign Name: HPGN 1991                                    COMMENT
4-Character Station Name: 0618                              COMMENT
6-Character Antenna Code: TRMSST                            COMMENT
Vertical Measurement Point: TGP                             COMMENT
Vertical Offset to Rinex Ref. Point: 0.0629                 COMMENT
Radial Measurement Point: OGP                               COMMENT
Radial Offset to Rinex Ref. Point: 0.2413                   COMMENT
Antenna Height from Field Measurement: 1.5580 m             COMMENT
Original XYZ: -2531006.0799 -4590943.2068 3622579.6656      COMMENT
New XYZ position is based on association with SCEC monument COMMENT
E1E9T7Y0+0011. Position of that monument is believed to be  COMMENT
valid to within 1 m horizontally; vertical accuracy         COMMENT
should be no worse than 3-times this value.                 COMMENT
                                                            COMMENT
Revised Rinex header created by UCSD GPS archive for        COMMENT
GSAC on 19-Apr-1999 (1999:109) 06:02:45 GMT                 COMMENT
For assistance contact dagnew@ucsd.edu or hjohnson@ucsd.edu COMMENT
                                                            COMMENT
HPGN-CALIF STA 06-18                                        MARKER NAME
unknown NATIONAL GEODETIC SURVEY                            OBSERVER / AGENCY
484 TRIMBLE 4000 SST NP 4.30 / SP 4.20                      REC # / TYPE / VERS
18 TR 4000SST L1/L2 GEO                                     ANT # / TYPE
 -2531012.0000 -4590952.0000  3622583.0000                  APPROX POSITION XYZ
        1.4763        0.0000        0.0000                  ANTENNA: DELTA H/E/N
     1     1     0                                          WAVELENGTH FACT L1/2
     3    C1    L1    L2                                    # / TYPES OF OBSERV
     0                                                      INTERVAL
  1991     4    25     1    45    0.000000                  TIME OF FIRST OBS
  1991     4    25     1    53   60.000000                  TIME OF LAST OBS
     0                                                      # OF SATELLITES
                                                            END OF HEADER
 91  4 25  1 45  0.0000000  0  4G13G 2G 6G12
  20715010.102          -0.18518
  23335150.3984         -0.94956
  22811835.8054         -0.47956
  21773512.7274         -0.82557
 91  4 25  1 45 15.0000000  0  4G13G 2G 6G12
  20717329.2114      12184.51848
  23339987.625       25401.883 5
  22819629.5004      40969.71846
  21764691.7664     -46351.23547
 91  4 25  1 45 30.0000000  0  4G13G 2G 6G12
  20719631.7894      24285.98548        -0.15572
  23344804.4694      50695.86146
  22827417.0554      81861.48846        -0.01571
  21755857.3674     -92765.22247
 91  4 25  1 45 45.0000000  0  4G13G 2G 6G12
  20721932.047       36381.600 8      9425.00822
  23349609.781       75958.577 5        -0.11331
  22835195.992      122752.237 6     31862.83021
  21747029.2894    -139164.81147
 91  4 25  1 46  0.0000000  0  4G13G 2G 6G12
  20724240.9384      48509.33748     18875.20263
  23354414.5474     101228.48645     19690.64561
  22842982.266      163680.191 6     63754.66321
  21738210.328     -185510.985 7        -0.05732
 91  4 25  1 46 15.0000000  0  4G13G 2G 6G12
  20726559.7814      60686.27448     28363.73362
  23359231.3674     126522.99846     39400.59261
  22850780.844      204662.348 6     95688.69521
  21729403.898     -231786.071 7    -36058.51622
 91  4 25  1 46 30.0000000  0  4G13G 2G 6G12
  20728889.5164      72932.71548     37906.42062
  23364054.391      151862.674 5     59145.76021
  22858598.8134     245718.95746    127680.77761
  21720616.984     -277969.284 7    -72045.38322
 91  4 25  1 46 45.0000000  0  4G13G 2G 6G12
  20731229.6644      85233.62248     47491.54062
  23368877.9774     177232.45645     78914.33561
  22866419.6564     286834.86546    159719.06561
  21711842.367     -324075.126 7   -107971.96722
 91  4 25  1 47  0.0000000  0  4G13G 2G 6G12
  20733580.9064      97584.30848     57115.46262
  23373711.9844     202627.97946     98702.98061
  22874250.7194     328005.39445    191799.92061
  21703082.867     -370107.705 7   -143841.45522
 91  4 25  1 47 15.0000000  0  4G13G 2G 6G12
  20735944.4384     110007.10348     66795.57462
  23378554.914      228071.817 6    118529.31121
  22882101.805      369252.686 5    223940.56221
  21694341.508     -416043.967 7   -179635.89922
 91  4 25  1 47 29.9990000  0  4G13G 2G 6G12
  20738321.9014     122493.87748     76525.52762
  23383403.972      253555.305 5    138386.49621
  22889964.7694     410566.91046    256133.38561
  21685619.151     -461887.595 7   -215358.16122
 91  4 25  1 47 44.9990000  0  4G13G 2G 6G12
  20740711.0974     135051.91748     86311.01263
  23388262.6054     279087.77545    158281.86561
  22897840.065      451959.084 5    288386.92821
  21676909.940     -507638.261 7   -251007.98122
 91  4 25  1 47 59.9990000  0  4G13G 2G 6G12
  20743114.6754     147682.16648     96152.76762
  23393131.995      304669.606 6    178215.68921
  22905731.3624     493428.30545    320700.51661
  21668224.831     -553290.449 7   -286581.07022
 91  4 25  1 48 14.9990000  0  4G13G 2G 6G12
  20745530.3084     160381.92748    106048.68862
  23398008.8084     330298.30046    198186.02661
  22913641.698      534971.835 6    353071.99221
  21659554.409     -598846.408 7   -322079.17722
 91  4 25  1 48 29.9990000  0  4G13G 2G 6G12
  20747960.3234     173156.14948    116002.62862
  23402897.5034     355978.95446    218196.85861
  22921556.8704     576594.59746    385505.21261
  21650904.409     -644300.457 7   -357497.87022
 91  4 25  1 48 44.9990000  0  4G13G 2G 6G12
  20750405.5114     186004.77548    126014.54662
  23407792.081      381712.041 6    238248.53521
  22929496.4724     618296.57546    418000.17861
  21642274.519     -689651.888 7   -392836.59522
 91  4 25  1 48 59.9990000  0  4G13G 2G 6G12
  20752865.7374     198927.84548    136084.46962
  23412697.659      407497.798 5    258341.26221
  22937444.9014     660077.71545    450556.83361
  21633662.5734    -734900.24247   -428095.01862
 91  4 25  1 49 14.9990000  0  4G13G 2G 6G12
  20755341.3234     211935.23448    146220.09362
  23417619.487      433346.147 6    278482.75221
  22945414.222      701947.723 5    483182.71021
  21625075.456     -780035.182 7   -463265.05822
 91  4 25  1 49 29.9990000  0  4G13G 2G 6G12
  20757831.4804     225031.39448    156424.89362
  23422549.112      459261.908 5    298676.79321
  22953397.5504     743911.04145    515881.30561
  21616507.901     -825051.545 7   -498342.69923
 91  4 25  1 49 44.9990000  0  4G13G 2G 6G12
  20760337.5344     238193.48248    166681.06462
  23427490.823      485222.624 5    318905.84521
  22961394.1984     785944.87645    548634.82261
  21607961.776     -869971.475 7   -533345.20222
 91  4 25  1 49 59.9990000  0  4G13G 2G 6G12
  20762852.1674     251419.56548    176987.10562
  23432439.3474     511226.77546    339168.76361
  22969408.831      828047.512 5    581441.98521
  21599429.8944    -914796.09047   -568273.42963
 91  4 25  1 50 14.9990000  0  4G13G 2G 6G12
  20765383.2224     264708.11248    187341.81862
  23437397.089      537272.938 6    359464.38521
  22977433.503      870217.469 5    614301.58321
  21590917.925     -959526.218 7   -603128.03122
 91  4 25  1 50 29.9990000  0  4G13G 2G 6G12
  20767926.3154     278071.82348    197755.09962
  23442362.7534     563373.87846    379802.71561
  22985472.8084     912467.10745    647223.27061
  21582428.3704   -1004148.72547   -637898.77762
 91  4 25  1 50 44.9990000  0  4G13G 2G 6G12
  20770480.3004     291500.14148    208218.72262
  23447334.3624     589519.34645    400175.74861
  22993524.870      954785.768 5    680198.75321
  21573955.4404   -1048673.57148   -672593.42463
 91  4 25  1 50 59.9990000  0  4G13G 2G 6G12
  20773050.6204     305007.13248    218743.64762
  23452325.651      615723.735 5    420594.68521
  23001597.339      997187.627 6    713239.06321
  21565503.4254   -1093086.06447   -707200.52062
 91  4 25  1 51 14.9990000  0  4G13G 2G 6G12
  20775634.2304     318587.13848    229325.46862
  23457319.784      641981.749 6    441055.38621
  23009681.3474    1039667.17446    746339.90461
  21557072.8704   -1137391.13247   -741723.91063
 91  4 25  1 51 29.9990000  0  4G13G 2G 6G12
  20778238.9174     332274.79248    239991.17162
  23462332.0974     668328.16546    461584.99361
  23017785.3944    1082258.93246    779528.19561
  21548669.5584   -1181553.62748   -776136.20362
 91  4 25  1 51 44.9990000  0  4G13G 2G 6G12
  20780853.3944     346012.60848    250695.96162
  23467353.5114     694705.54345    482138.73961
  23025900.214     1124905.143 5    812758.92321
  21540281.5814   -1225630.43347   -810481.73062
 91  4 25  1 51 59.9990000  0  4G13G 2G 6G12
  20783485.4644     359830.19348    261462.91262
  23472385.6754     721143.85845    502739.95461
  23034032.4724    1167635.48245    846055.15461
  21531915.6754   -1269591.22948   -844736.85962
 91  4 25  1 52 14.9990000  0  4G13G 2G 6G12
  20786126.6444     373722.41848    272288.01462
  23477427.0114     747638.52046    523385.06661
  23042178.480     1210445.043 5    879413.16221
  21523573.722    -1313440.384 8   -878904.98823
 91  4 25  1 52 29.9990000  0  4G13G 2G 6G12
  20788786.4254     387698.25548    283178.27662
  23482480.065      774198.586 5    544081.17121
  23050341.0654    1253342.48445    912839.64261
  21515250.925    -1357168.500 8   -912978.80623
 91  4 25  1 52 44.9990000  0  4G13G 2G 6G12
  20791458.8154     401738.64048    294118.83362
  23487543.105      800805.287 5    564813.59421
  23058515.714     1296308.807 5    946319.79021
  21506948.1444   -1400794.09848   -946972.73962
 91  4 25  1 52 59.9990000  0  4G13G 2G 6G12
  20794145.1674     415852.59148    305116.71862
  23492621.7614     827467.91746    585589.59461
  23066705.7694    1339353.09145    979860.68861
  21498667.3624   -1444307.34248   -980879.12462
 91  4 25  1 53 14.9990000  0  4G13G 2G 6G12
  20796844.8784     430033.23048    316166.57262
  23497702.2534     854179.97646    606404.12961
  23074913.5974    1382468.38846   1013456.91961
  21490408.0264   -1487714.46448  -1014702.82163
 91  4 25  1 53 29.9990000  0  4G13G 2G 6G12
  20799550.3314     444265.20548    327256.42062
  23502789.151      880926.219 5    627245.30321
  23083130.0194    1425639.33746   1047096.49961
  21482166.4334   -1531030.33148  -1048455.40762
 91  4 25  1 53 44.9990000  0  4G13G 2G 6G12
  20802270.5424     458560.09848    338395.29662
  23507885.097      907718.576 5    648122.38721
  23091355.0424    1468877.53945   1080788.50161
  21473941.7694   -1574242.58248  -1082127.25463
